Theta_e
325 327 327 328 329 330 330 330 330 331 330 329 328 328 328 328 328 326 323 321 320 320 320 320 320 321 319 317 317 315 312 311 307 294 293 292 293 293 293 294 293 293 294
322 325 326 327 327 327 328 328 329 329 329 328 327 327 327 326 326 324 322 320 320 318 318 316 316 313 313 313 312 310 307 306 305 299 291 290 291 292 293 291 291 293 292
318 321 323 324 325 325 326 326 327 327 327 326 326 325 325 324 323 322 321 318 317 316 315 314 312 311 308 306 306 304 302 300 299 295 289 290 290 290 289 290 290 291 292
318 320 320 321 322 323 324 324 324 325 324 323 323 322 321 320 318 313 313 313 311 308 306 306 306 306 306 304 302 302 298 296 295 291 289 289 290 288 289 289 289 289 289
312 317 318 320 321 320 319 319 317 317 315 313 310 308 307 308 305 306 307 309 305 302 300 301 301 295 292 300 302 298 297 293 291 289 288 289 288 287 287 288 288 289 290
311 312 311 309 306 306 306 306 304 304 305 304 302 302 302 297 297 299 303 304 301 298 295 294 295 290 293 295 296 296 297 294 288 289 289 288 287 288 288 287 287 286 285
307 307 304 302 301 302 300 299 298 301 301 300 300 300 298 298 296 297 297 301 298 297 293 293 291 292 293 293 294 293 290 292 293 293 288 289 288 289 288 286 285 285 285
303 302 299 296 295 295 297 298 297 299 298 298 297 298 296 295 295 295 294 297 295 294 293 293 291 291 292 292 290 288 287 287 289 290 290 289 289 288 288 286 285 283 284
296 296 296 297 294 294 294 295 295 294 292 292 291 291 291 290 293 293 293 291 289 289 290 292 292 290 291 291 287 285 285 286 289 290 289 289 289 289 287 285 283 280 280
296 295 295 295 294 294 294 293 290 291 288 289 287 288 287 288 292 293 292 290 288 287 287 287 287 288 290 291 286 285 284 284 284 284 284 285 286 285 285 284 283 280 280
294 294 293 293 293 293 291 290 289 288 287 287 287 287 287 288 290 292 292 290 289 288 287 287 287 290 290 290 288 285 285 285 285 284 284 283 283 283 283 282 283 281 279
294 293 292 290 290 290 289 288 287 287 287 286 286 286 287 287 289 292 292 291 291 287 286 287 287 290 290 289 287 288 287 285 284 284 282 281 281 282 281 280 279 278 279
291 289 288 288 288 288 288 287 287 287 287 286 287 286 286 286 287 290 291 290 289 287 287 289 288 287 286 286 286 285 283 283 283 282 281 281 281 281 281 281 280 281 277
289 289 288 288 288 288 289 289 288 288 288 287 287 286 286 286 286 287 287 287 287 287 287 286 285 284 284 282 281 282 281 281 280 280 279 280 280 280 279 279 277 276 272
289 288 288 288 288 288 289 289 289 290 290 288 288 287 286 285 286 287 286 285 285 285 283 283 282 282 282 282 281 281 281 279 278 278 276 275 275 275 274 274 274 272 270
289 288 289 289 289 289 288 287 291 290 290 291 290 289 286 289 288 287 287 287 286 286 284 283 282 283 282 281 280 278 277 275 275 275 275 274 273 272 271 271 271 270 270
290 289 289 289 289 288 288 287 285 287 289 290 289 289 289 288 287 287 287 287 287 287 284 283 282 281 279 278 277 276 274 272 271 272 271 270 270 270 269 268 269 268 267
288 288 290 290 290 289 288 287 286 285 283 284 288 288 288 288 288 288 287 286 284 285 283 281 278 277 276 275 274 272 272 271 269 269 268 267 266 266 266 266 266 264 264
288 289 290 290 290 289 288 287 287 286 284 284 285 287 286 287 288 288 286 282 279 278 277 276 275 273 272 271 270 269 268 267 266 266 266 265 264 263 263 263 264 263 262
289 288 289 289 288 287 287 286 285 285 283 283 283 284 285 285 282 279 278 278 276 274 273 271 270 270 269 268 268 268 267 265 265 265 264 263 262 262 261 260 260 260 260
288 288 288 287 287 286 286 285 285 283 282 281 281 279 282 281 277 275 274 273 272 271 270 269 268 267 266 266 266 265 265 265 264 264 263 262 259 258 260 261 260 259 259
288 287 287 287 286 285 285 285 283 282 281 280 276 278 281 276 274 272 270 269 269 269 269 268 267 266 265 265 266 265 264 264 262 261 261 259 258 259 259 259 258 258 257
286 286 286 286 285 284 283 282 282 280 279 276 276 276 273 272 270 268 266 265 265 265 265 266 264 263 262 263 263 263 263 262 261 260 257 257 258 258 258 257 257 256 256
285 284 285 283 283 281 281 280 279 278 277 275 272 271 270 269 268 266 265 265 264 263 264 264 264 263 261 262 261 259 258 257 257 256 255 254 255 256 256 256 256 256 256
283 283 281 279 279 279 278 277 276 274 273 271 270 268 268 267 265 265 264 264 263 263 262 263 262 261 260 259 259 257 258 260 255 256 254 254 254 253 254 254 254 253 253
281 280 278 279 278 277 275 273 272 271 270 269 268 267 266 265 264 263 263 262 262 263 262 262 261 260 259 259 258 259 258 260 255 254 254 255 256 256 255 254 253 253 253
Wind_Speed
16 16 17 16 16 15 14 13 14 12 12 12 12 12 12 12 11 12 9 8 9 8 7 9 9 7 5 4 4 3 3 3 3 2 1 1 0 1 2 4 5 5 4
12 14 16 16 15 16 15 15 13 13 12 12 12 12 12 11 10 12 11 7 9 9 8 6 6 3 4 3 2 3 2 2 3 4 2 2 1 2 3 2 1 2 4
9 12 13 14 14 15 15 14 13 13 13 12 12 11 11 9 8 8 8 8 7 6 5 5 5 5 3 2 3 4 3 3 2 3 3 1 1 1 1 1 2 3 3
12 12 13 14 14 13 13 13 12 12 11 11 11 10 9 8 7 7 6 6 6 5 5 6 5 5 5 5 4 5 4 4 3 2 1 2 2 3 1 2 3 2 3
7 10 12 11 10 8 7 7 7 7 6 6 6 5 6 6 5 8 7 8 8 7 5 5 4 4 2 2 3 4 5 4 3 2 2 2 1 1 1 1 2 2 2
8 7 4 7 8 6 7 7 7 8 9 9 7 8 7 4 8 9 9 8 8 8 7 5 5 5 6 5 3 5 4 3 3 3 2 2 2 2 1 1 1 2 3
8 6 6 6 8 11 10 10 9 9 8 8 8 8 7 5 8 10 11 7 7 7 7 6 5 3 6 7 10 13 11 14 9 5 4 2 3 2 2 1 2 0 2
7 7 7 7 7 6 7 9 9 8 8 8 8 8 9 5 10 11 11 8 7 7 7 6 6 6 5 6 8 8 7 8 7 6 7 6 5 4 4 2 2 1 3
10 10 10 10 9 8 8 8 6 7 5 5 6 7 7 5 9 12 11 8 8 6 6 6 6 7 8 12 8 8 7 7 11 15 14 13 12 10 8 3 4 3 2
11 10 9 8 10 9 8 8 4 6 6 6 5 5 7 7 12 13 11 7 9 7 6 6 8 7 9 11 6 6 7 4 5 4 4 8 9 8 11 7 3 3 2
8 10 9 9 9 10 8 6 7 8 8 7 7 5 6 5 8 13 12 7 8 8 7 6 5 11 9 10 9 5 5 6 8 6 5 4 4 4 5 5 3 2 3
11 11 11 10 7 8 11 7 8 9 10 8 8 6 3 4 7 11 10 10 11 9 8 7 8 14 14 14 10 14 11 7 5 4 3 2 3 3 3 3 3 3 3
13 11 10 10 9 9 12 11 9 9 9 9 8 7 5 3 4 12 14 16 16 9 7 14 20 17 17 14 13 12 8 5 5 5 4 4 4 3 4 4 5 5 4
12 13 11 12 12 10 8 9 10 9 9 9 9 8 7 6 6 6 8 11 18 14 17 12 11 11 13 10 6 8 6 5 5 5 4 3 3 4 4 4 4 4 2
10 11 12 9 11 11 8 9 9 7 9 10 9 10 11 9 8 12 13 10 10 12 13 8 6 5 6 7 6 6 5 4 4 3 3 2 2 2 2 2 2 2 2
12 11 11 10 9 9 9 7 8 9 11 9 11 11 4 12 20 20 18 19 22 22 6 7 6 5 7 6 6 5 4 5 4 3 3 3 2 2 3 3 2 2 3
13 13 11 11 11 11 11 11 11 7 13 14 14 13 15 22 21 21 22 23 20 13 8 7 7 6 6 5 4 5 5 4 2 3 2 2 2 3 3 2 2 2 2
6 8 9 10 11 11 11 11 10 11 11 8 11 12 19 22 24 23 25 19 10 8 7 8 7 6 6 6 5 5 5 3 3 3 3 2 1 1 2 2 2 2 2
8 8 9 8 9 10 10 10 10 10 10 10 10 10 16 23 22 23 21 7 9 8 7 7 5 5 5 6 5 5 5 4 3 3 3 2 2 2 2 2 3 4 4
8 11 11 9 9 10 10 11 11 11 11 11 10 10 10 14 9 7 4 7 7 7 7 7 5 4 4 5 5 5 5 3 3 3 3 2 2 2 2 2 2 3 3
7 9 13 10 11 11 11 12 11 11 11 10 10 9 16 10 9 6 6 6 7 7 7 7 6 5 3 3 4 4 4 4 3 3 3 3 2 2 2 2 2 2 2
8 9 9 10 10 11 12 11 12 13 12 12 9 11 17 6 8 8 7 6 6 5 5 7 7 5 4 3 4 5 5 4 4 3 3 2 0 1 1 2 2 2 2
7 9 10 9 10 12 11 10 11 11 12 12 11 10 8 7 7 7 9 7 5 4 2 5 7 5 3 3 2 2 4 4 4 4 3 1 0 1 1 2 2 2 2
8 9 10 9 9 10 11 11 10 12 13 13 11 10 9 8 8 9 8 8 7 5 3 4 5 6 5 4 3 2 3 4 4 4 4 2 1 1 2 2 3 3 3
8 9 10 10 10 10 10 10 11 12 12 11 10 10 9 9 9 8 7 6 7 6 5 5 4 5 5 5 4 4 4 4 4 3 3 4 3 3 3 3 3 3 3
8 9 9 10 10 11 12 12 12 12 13 11 11 10 10 9 8 8 7 7 6 6 6 4 4 5 5 4 5 5 4 4 5 7 4 3 3 3 2 3 5 3 4
Wind_Direction
218 214 209 208 207 206 208 209 207 201 201 202 208 202 205 205 201 209 204 192 203 209 206 218 229 218 212 205 201 196 200 194 227 129 121 104 152 85 175 196 190 199 205
220 222 216 209 203 198 201 205 200 198 199 202 198 203 203 205 199 202 205 189 195 202 215 203 216 195 205 175 173 202 173 142 183 166 157 168 175 222 230 220 242 228 238
213 214 214 213 203 199 197 197 196 195 196 193 197 197 199 194 190 188 189 187 195 195 184 175 150 156 142 171 176 163 138 151 152 134 142 161 177 193 338 298 242 242 244
217 202 204 211 206 201 196 191 190 189 190 188 192 183 180 176 173 170 172 165 146 126 123 130 135 160 165 174 181 180 142 134 113 109 116 112 69 62 358 332 334 201 253
240 215 217 200 196 187 172 164 147 155 155 146 138 129 134 149 156 157 155 144 134 124 113 113 114 67 39 219 155 157 149 136 134 121 97 79 98 94 150 125 247 302 260
210 217 188 166 144 153 148 143 141 139 141 137 133 137 133 134 147 145 142 140 137 142 136 113 111 139 107 137 122 105 107 130 73 89 99 106 129 163 144 156 21 360 349
204 178 172 174 165 163 154 144 144 144 134 131 132 131 132 133 142 136 135 137 137 139 137 130 124 116 104 104 95 92 77 81 86 134 137 102 101 77 76 59 74 295 254
181 179 168 166 163 154 159 154 144 146 152 145 143 143 138 145 155 148 126 119 114 115 128 138 130 112 107 116 102 87 76 61 53 70 82 74 76 54 76 128 120 306 275
182 178 171 166 153 157 159 152 138 129 124 121 132 135 133 124 143 131 115 107 105 105 101 111 119 113 130 119 117 120 95 84 73 81 79 74 67 61 50 60 30 356 305
188 178 160 152 155 162 159 153 127 125 106 119 104 108 112 124 142 135 125 127 119 118 90 89 91 104 133 135 129 128 106 86 97 68 56 58 52 52 54 50 32 357 328
154 146 142 144 152 149 135 127 123 118 114 105 104 89 100 126 147 140 136 137 137 126 123 108 85 103 113 119 118 106 110 119 95 91 76 68 65 44 39 29 57 10 329
145 152 149 142 141 138 133 127 122 126 123 124 126 109 77 83 128 142 127 124 123 123 122 110 106 106 103 102 93 102 100 88 74 77 79 78 40 37 31 27 11 350 351
143 152 145 134 139 145 142 141 138 144 143 147 145 138 128 86 94 118 118 112 106 103 109 116 113 113 105 95 99 84 74 72 72 70 53 41 28 20 1 5 354 344 312
160 154 153 154 153 155 151 154 153 158 157 158 153 148 142 132 126 124 117 108 104 106 113 114 119 116 106 106 83 74 66 63 67 71 63 44 19 16 9 6 347 346 308
168 160 158 160 165 159 161 163 163 168 166 163 166 157 154 158 164 151 143 138 131 131 122 119 126 129 113 107 100 91 73 70 71 58 53 39 15 13 10 3 4 341 339
174 169 171 162 163 163 152 130 121 135 144 155 164 164 136 142 145 145 139 133 137 139 119 126 128 133 127 127 127 109 82 71 42 31 33 34 18 352 7 327 355 340 332
196 181 165 167 167 165 162 157 142 115 130 142 152 152 149 146 145 144 138 139 141 132 120 125 142 137 123 115 117 102 95 81 83 80 60 38 2 360 343 336 346 340 325
185 190 184 169 168 167 165 158 153 150 144 137 142 148 148 146 146 146 141 134 135 120 126 138 145 141 132 121 114 113 116 126 109 93 78 55 6 326 335 352 332 339 345
175 177 178 170 166 163 155 150 148 144 140 133 128 141 150 142 142 143 146 141 137 132 128 123 132 134 132 135 137 122 120 113 111 106 98 70 12 2 353 359 326 340 335
196 178 172 165 157 157 154 153 148 145 143 145 144 151 152 146 145 138 125 129 124 124 121 121 128 121 127 137 136 130 120 114 107 99 95 87 41 3 2 340 339 347 321
198 181 170 163 166 165 161 160 153 150 150 153 143 150 155 151 141 143 131 122 122 128 129 135 136 130 135 120 120 110 105 116 101 101 93 77 58 6 12 326 329 319 310
201 177 175 174 167 168 167 161 160 155 154 146 140 159 151 125 135 133 116 108 109 114 128 136 121 126 133 141 128 126 123 117 111 107 94 107 93 318 328 309 293 305 310
189 175 174 172 169 164 158 158 160 159 146 137 151 146 138 131 130 128 116 109 103 103 106 110 114 123 114 97 76 93 119 117 104 99 109 120 161 285 332 289 296 297 301
184 175 174 164 164 160 158 155 153 150 143 137 141 135 135 132 130 121 117 121 122 121 117 107 113 124 122 123 139 128 107 104 113 120 150 152 225 264 240 267 270 272 275
183 180 168 159 163 160 153 152 148 141 134 135 135 123 125 121 118 119 121 128 127 126 125 115 112 128 139 146 144 138 136 129 127 164 157 170 205 236 234 226 252 272 276
180 175 166 162 163 158 155 152 148 141 135 133 127 122 128 127 126 129 133 133 127 123 126 127 144 144 149 178 190 174 170 180 194 194 184 179 191 208 196 218 237 236 258